• In United Kingdom
  • List of Countries
  • For 7 days
  • Water Temperature
  • Satellite Maps
  • Weather Map
  • Weather Widgets
  • user-avatar
    Login

    Hourly Weather Wien

    Today, 23 July, Sunday

    Time Temperature Precipitation Wind Pressure Humidity
    00:00 +22°C° 0.3 mm 1 mps 742 mmHg 74%
    01:00 +22°C° 0.3 mm 1 mps 742 mmHg 77%
    02:00 +22°C° 0.3 mm 1 mps 742 mmHg 78%
    03:00 +21°C° 0.3 mm 1 mps 742 mmHg 80%
    04:00 +21°C° 0.3 mm 1 mps 742 mmHg 81%
    05:00 +22°C° 0.4 mm 1 mps 742 mmHg 78%
    06:00 +23°C° 0.4 mm 1 mps 742 mmHg 75%
    07:00 +24°C° 0.4 mm 1 mps 743 mmHg 72%
    08:00 +26°C° 0.2 mm 2 mps 743 mmHg 65%
    09:00 +28°C° 0.2 mm 3 mps 743 mmHg 59%
    10:00 +29°C° 0.2 mm 3 mps 743 mmHg 52%
    11:00 +30°C° 0.1 mm 3 mps 743 mmHg 49%
    12:00 +31°C° 0.1 mm 3 mps 743 mmHg 46%
    13:00 +33°C° 0.1 mm 4 mps 743 mmHg 42%
    14:00 +31°C° 0.2 mm 3 mps 743 mmHg 43%
    15:00 +31°C° 0.2 mm 3 mps 743 mmHg 45%
    16:00 +30°C° 0.2 mm 3 mps 742 mmHg 46%
    17:00 +28°C° 0.5 mm 3 mps 742 mmHg 52%
    18:00 +27°C° 0.5 mm 3 mps 742 mmHg 59%
    19:00 +25°C° 0.5 mm 3 mps 742 mmHg 66%
    20:00 +24°C° 0.3 mm 3 mps 743 mmHg 70%
    21:00 +23°C° 0.3 mm 2 mps 743 mmHg 75%
    22:00 +21°C° 0.3 mm 2 mps 743 mmHg 80%
    23:00 +20°C° 0.1 mm 2 mps 743 mmHg 81%

    Tomorrow, 24 July, Monday

    Time Temperature Precipitation Wind Pressure Humidity
    00:00 +20°C° 0.1 mm 2 mps 742 mmHg 83%
    01:00 +19°C° 0.1 mm 2 mps 742 mmHg 85%
    02:00 +19°C° 0 mm 2 mps 742 mmHg 86%
    03:00 +18°C° 0 mm 2 mps 742 mmHg 86%
    04:00 +18°C° 0 mm 2 mps 741 mmHg 86%
    05:00 +19°C° 0.2 mm 2 mps 741 mmHg 82%
    06:00 +20°C° 0.2 mm 2 mps 740 mmHg 78%
    07:00 +20°C° 0.2 mm 2 mps 740 mmHg 74%
    08:00 +21°C° 0.4 mm 2 mps 740 mmHg 72%
    09:00 +23°C° 0.4 mm 2 mps 739 mmHg 70%
    10:00 +23°C° 0.4 mm 1 mps 739 mmHg 69%
    11:00 +25°C° 0.2 mm 2 mps 738 mmHg 63%
    12:00 +26°C° 0.2 mm 2 mps 738 mmHg 58%
    13:00 +28°C° 0.2 mm 2 mps 737 mmHg 53%
    14:00 +28°C° 0.2 mm 2 mps 736 mmHg 54%
    15:00 +28°C° 0.2 mm 2 mps 736 mmHg 55%
    16:00 +28°C° 0.2 mm 2 mps 735 mmHg 55%
    17:00 +26°C° 1.7 mm 3 mps 735 mmHg 63%
    18:00 +23°C° 1.7 mm 4 mps 735 mmHg 71%
    19:00 +21°C° 1.7 mm 6 mps 735 mmHg 78%
    20:00 +20°C° 0.8 mm 7 mps 735 mmHg 80%
    21:00 +18°C° 0.8 mm 8 mps 735 mmHg 82%
    22:00 +17°C° 0.8 mm 9 mps 736 mmHg 84%
    23:00 +16°C° 0.3 mm 9 mps 736 mmHg 82%

    Day after tomorrow, 25 July, Tuesday

    Time Temperature Precipitation Wind Pressure Humidity
    00:00 +16°C° 0.3 mm 8 mps 736 mmHg 80%
    01:00 +16°C° 0.3 mm 8 mps 736 mmHg 79%
    02:00 +15°C° 0 mm 8 mps 736 mmHg 77%
    03:00 +15°C° 0 mm 8 mps 736 mmHg 76%
    04:00 +15°C° 0 mm 8 mps 735 mmHg 75%
    05:00 +15°C° 0 mm 8 mps 736 mmHg 73%
    06:00 +15°C° 0 mm 8 mps 736 mmHg 71%
    07:00 +16°C° 0 mm 8 mps 736 mmHg 69%
    08:00 +17°C° 0 mm 8 mps 736 mmHg 64%
    09:00 +18°C° 0 mm 8 mps 736 mmHg 60%
    10:00 +19°C° 0 mm 9 mps 736 mmHg 56%
    11:00 +21°C° 0 mm 8 mps 736 mmHg 54%
    12:00 +21°C° 0 mm 8 mps 735 mmHg 51%
    13:00 +22°C° 0 mm 8 mps 735 mmHg 49%
    14:00 +22°C° 0 mm 7 mps 735 mmHg 50%
    15:00 +22°C° 0 mm 7 mps 735 mmHg 50%
    16:00 +22°C° 0 mm 6 mps 735 mmHg 50%
    17:00 +21°C° 0 mm 5 mps 735 mmHg 55%
    18:00 +20°C° 0 mm 5 mps 735 mmHg 59%
    19:00 +19°C° 0 mm 4 mps 735 mmHg 64%
    20:00 +18°C° 0 mm 4 mps 735 mmHg 68%
    21:00 +17°C° 0 mm 4 mps 735 mmHg 72%
    22:00 +15°C° 0 mm 4 mps 735 mmHg 76%
    23:00 +15°C° 0 mm 4 mps 736 mmHg 77%

    26 July, Wednesday

    Time Temperature Precipitation Wind Pressure Humidity
    00:00 +15°C° 0 mm 4 mps 736 mmHg 78%
    01:00 +15°C° 0 mm 5 mps 736 mmHg 78%
    02:00 +14°C° 0 mm 5 mps 736 mmHg 79%
    03:00 +14°C° 0 mm 5 mps 736 mmHg 80%
    04:00 +14°C° 0 mm 5 mps 736 mmHg 81%
    05:00 +15°C° 0 mm 5 mps 736 mmHg 77%
    06:00 +16°C° 0 mm 6 mps 736 mmHg 73%
    07:00 +17°C° 0 mm 6 mps 736 mmHg 69%
    08:00 +17°C° 0 mm 7 mps 736 mmHg 65%
    09:00 +18°C° 0 mm 7 mps 736 mmHg 62%
    10:00 +20°C° 0 mm 7 mps 736 mmHg 58%
    11:00 +21°C° 0 mm 7 mps 736 mmHg 55%
    12:00 +22°C° 0 mm 7 mps 736 mmHg 52%
    13:00 +23°C° 0 mm 7 mps 736 mmHg 50%
    14:00 +23°C° 0 mm 7 mps 736 mmHg 50%
    15:00 +23°C° 0 mm 7 mps 737 mmHg 50%
    16:00 +23°C° 0 mm 7 mps 737 mmHg 50%
    17:00 +22°C° 0 mm 6 mps 737 mmHg 57%
    18:00 +20°C° 0 mm 6 mps 737 mmHg 63%
    19:00 +19°C° 0 mm 5 mps 738 mmHg 69%
    20:00 +17°C° 0 mm 5 mps 738 mmHg 73%
    21:00 +17°C° 0 mm 5 mps 739 mmHg 77%
    22:00 +16°C° 0 mm 5 mps 739 mmHg 81%
    23:00 +16°C° 0 mm 5 mps 739 mmHg 81%

    27 July, Thursday

    Time Temperature Precipitation Wind Pressure Humidity
    00:00 +16°C° 0 mm 5 mps 740 mmHg 80%
    01:00 +16°C° 0 mm 5 mps 740 mmHg 80%
    02:00 +16°C° 0.1 mm 5 mps 740 mmHg 80%
    03:00 +16°C° 0.1 mm 5 mps 740 mmHg 81%
    04:00 +16°C° 0.1 mm 5 mps 740 mmHg 81%
    05:00 +16°C° 0.2 mm 6 mps 740 mmHg 81%
    06:00 +16°C° 0.2 mm 6 mps 741 mmHg 81%
    07:00 +16°C° 0.2 mm 6 mps 741 mmHg 81%
    08:00 +17°C° 0.1 mm 5 mps 741 mmHg 80%
    09:00 +17°C° 0.1 mm 5 mps 742 mmHg 79%
    10:00 +17°C° 0.1 mm 5 mps 742 mmHg 77%
    11:00 +20°C° 0 mm 5 mps 742 mmHg 70%
    12:00 +21°C° 0 mm 4 mps 742 mmHg 62%
    13:00 +22°C° 0 mm 4 mps 742 mmHg 54%
    14:00 +23°C° 0 mm 4 mps 742 mmHg 50%
    15:00 +25°C° 0 mm 4 mps 742 mmHg 46%
    16:00 +26°C° 0 mm 4 mps 742 mmHg 42%
    17:00 +25°C° 0 mm 3 mps 742 mmHg 48%
    18:00 +24°C° 0 mm 3 mps 742 mmHg 54%
    19:00 +23°C° 0 mm 2 mps 742 mmHg 60%
    20:00 +20°C° 0 mm 2 mps 742 mmHg 65%
    21:00 +19°C° 0 mm 2 mps 743 mmHg 71%
    22:00 +18°C° 0 mm 2 mps 743 mmHg 76%
    23:00 +17°C° 0 mm 2 mps 743 mmHg 78%

    28 July, Friday

    Time Temperature Precipitation Wind Pressure Humidity
    00:00 +17°C° 0 mm 2 mps 743 mmHg 80%
    01:00 +17°C° 0 mm 2 mps 743 mmHg 83%
    02:00 +16°C° 0 mm 1 mps 743 mmHg 84%
    03:00 +16°C° 0 mm 1 mps 743 mmHg 85%
    04:00 +16°C° 0 mm 1 mps 743 mmHg 87%
    05:00 +18°C° 0 mm 1 mps 743 mmHg 80%
    06:00 +20°C° 0 mm 1 mps 743 mmHg 74%
    07:00 +21°C° 0 mm 1 mps 744 mmHg 67%
    08:00 +23°C° 0 mm 1 mps 744 mmHg 61%
    09:00 +25°C° 0 mm 1 mps 744 mmHg 54%
    10:00 +27°C° 0 mm 2 mps 744 mmHg 47%
    11:00 +28°C° 0 mm 2 mps 743 mmHg 44%
    12:00 +29°C° 0 mm 2 mps 743 mmHg 41%
    13:00 +30°C° 0 mm 2 mps 743 mmHg 38%
    14:00 +31°C° 0 mm 2 mps 743 mmHg 38%
    15:00 +31°C° 0 mm 2 mps 742 mmHg 38%
    16:00 +31°C° 0 mm 3 mps 742 mmHg 38%
    17:00 +29°C° 0 mm 2 mps 742 mmHg 44%
    18:00 +28°C° 0 mm 2 mps 742 mmHg 51%
    19:00 +26°C° 0 mm 2 mps 742 mmHg 57%
    20:00 +25°C° 0 mm 2 mps 743 mmHg 61%
    21:00 +24°C° 0 mm 2 mps 743 mmHg 65%
    22:00 +23°C° 0 mm 2 mps 744 mmHg 69%
    23:00 +21°C° 0 mm 2 mps 744 mmHg 71%
    Show more